; 10.000.534,75 
01.01.2024 00:15;515
01.01.2024 00:30;486
01.01.2024 00:45;468
01.01.2024 01:00;451
01.01.2024 01:15;435
01.01.2024 01:30;420
01.01.2024 01:45;407
01.01.2024 02:00;392
01.01.2024 02:15;385
01.01.2024 02:30;383
01.01.2024 02:45;375
01.01.2024 03:00;368
01.01.2024 03:15;366
01.01.2024 03:30;361
01.01.2024 03:45;358
01.01.2024 04:00;356
01.01.2024 04:15;353
01.01.2024 04:30;359
01.01.2024 04:45;360
01.01.2024 05:00;365
01.01.2024 05:15;363
01.01.2024 05:30;365
01.01.2024 05:45;369
01.01.2024 06:00;372
01.01.2024 06:15;375
01.01.2024 06:30;383
01.01.2024 06:45;390
01.01.2024 07:00;396
01.01.2024 07:15;414
01.01.2024 07:30;422
01.01.2024 07:45;437
01.01.2024 08:00;459
01.01.2024 08:15;490
01.01.2024 08:30;510
01.01.2024 08:45;534
01.01.2024 09:00;552
01.01.2024 09:15;594
01.01.2024 09:30;630
01.01.2024 09:45;667
01.01.2024 10:00;691
01.01.2024 10:15;702
01.01.2024 10:30;737
01.01.2024 10:45;767
01.01.2024 11:00;796
01.01.2024 11:15;808
01.01.2024 11:30;828
01.01.2024 11:45;843
01.01.2024 12:00;863
01.01.2024 12:15;875
01.01.2024 12:30;904
01.01.2024 12:45;916
01.01.2024 13:00;900
01.01.2024 13:15;861
01.01.2024 13:30;855
01.01.2024 13:45;843
01.01.2024 14:00;837
01.01.2024 14:15;811
01.01.2024 14:30;798
01.01.2024 14:45;791
01.01.2024 15:00;791
01.01.2024 15:15;782
01.01.2024 15:30;780
01.01.2024 15:45;789
01.01.2024 16:00;777
01.01.2024 16:15;786
01.01.2024 16:30;819
01.01.2024 16:45;878
01.01.2024 17:00;951
01.01.2024 17:15;1021
01.01.2024 17:30;1089
01.01.2024 17:45;1141
01.01.2024 18:00;1189
01.01.2024 18:15;1185
01.01.2024 18:30;1194
01.01.2024 18:45;1183
01.01.2024 19:00;1165
01.01.2024 19:15;1155
01.01.2024 19:30;1121
01.01.2024 19:45;1090
01.01.2024 20:00;1068
01.01.2024 20:15;1069
01.01.2024 20:30;1012
01.01.2024 20:45;963
01.01.2024 21:00;921
01.01.2024 21:15;880
01.01.2024 21:30;849
01.01.2024 21:45;808
01.01.2024 22:00;792
01.01.2024 22:15;785
01.01.2024 22:30;777
01.01.2024 22:45;737
01.01.2024 23:00;697
01.01.2024 23:15;667
01.01.2024 23:30;629
01.01.2024 23:45;596
02.01.2024 00:00;567
02.01.2024 00:15;734
02.01.2024 00:30;710
02.01.2024 00:45;673
02.01.2024 01:00;646
02.01.2024 01:15;629
02.01.2024 01:30;617
02.01.2024 01:45;610
02.01.2024 02:00;599
02.01.2024 02:15;590
02.01.2024 02:30;582
02.01.2024 02:45;587
02.01.2024 03:00;587
02.01.2024 03:15;585
02.01.2024 03:30;581
02.01.2024 03:45;588
02.01.2024 04:00;590
02.01.2024 04:15;601
02.01.2024 04:30;617
02.01.2024 04:45;644
02.01.2024 05:00;666
02.01.2024 05:15;716
02.01.2024 05:30;770
02.01.2024 05:45;834
02.01.2024 06:00;910
02.01.2024 06:15;1025
02.01.2024 06:30;1177
02.01.2024 06:45;1306
02.01.2024 07:00;1445
02.01.2024 07:15;1566
02.01.2024 07:30;1668
02.01.2024 07:45;1755
02.01.2024 08:00;1833
02.01.2024 08:15;1895
02.01.2024 08:30;1919
02.01.2024 08:45;1927
02.01.2024 09:00;1946
02.01.2024 09:15;1934
02.01.2024 09:30;1957
02.01.2024 09:45;2007
02.01.2024 10:00;2015
02.01.2024 10:15;2020
02.01.2024 10:30;2050
02.01.2024 10:45;2058
02.01.2024 11:00;2077
02.01.2024 11:15;2098
02.01.2024 11:30;2114
02.01.2024 11:45;2106
02.01.2024 12:00;2084
02.01.2024 12:15;2082
02.01.2024 12:30;2092
02.01.2024 12:45;2094
02.01.2024 13:00;2114
02.01.2024 13:15;2095
02.01.2024 13:30;2091
02.01.2024 13:45;2053
02.01.2024 14:00;2004
02.01.2024 14:15;1974
02.01.2024 14:30;1989
02.01.2024 14:45;1964
02.01.2024 15:00;1948
02.01.2024 15:15;1928
02.01.2024 15:30;1871
02.01.2024 15:45;1864
02.01.2024 16:00;1854
02.01.2024 16:15;1828
02.01.2024 16:30;1805
02.01.2024 16:45;1787
02.01.2024 17:00;1837
02.01.2024 17:15;1911
02.01.2024 17:30;1999
02.01.2024 17:45;2037
02.01.2024 18:00;2074
02.01.2024 18:15;2094
02.01.2024 18:30;2112
02.01.2024 18:45;2086
02.01.2024 19:00;2060
02.01.2024 19:15;2043
02.01.2024 19:30;2005
02.01.2024 19:45;1953
02.01.2024 20:00;1904
02.01.2024 20:15;1835
02.01.2024 20:30;1694
02.01.2024 20:45;1598
02.01.2024 21:00;1547
02.01.2024 21:15;1484
02.01.2024 21:30;1408
02.01.2024 21:45;1336
02.01.2024 22:00;1234
02.01.2024 22:15;1179
02.01.2024 22:30;1108
02.01.2024 22:45;1027
02.01.2024 23:00;972
02.01.2024 23:15;911
02.01.2024 23:30;850
02.01.2024 23:45;799
03.01.2024 00:00;762
03.01.2024 00:15;724
03.01.2024 00:30;687
03.01.2024 00:45;669
03.01.2024 01:00;645
03.01.2024 01:15;624
03.01.2024 01:30;608
03.01.2024 01:45;596
03.01.2024 02:00;591
03.01.2024 02:15;578
03.01.2024 02:30;567
03.01.2024 02:45;568
03.01.2024 03:00;570
03.01.2024 03:15;578
03.01.2024 03:30;578
03.01.2024 03:45;581
03.01.2024 04:00;593
03.01.2024 04:15;601
03.01.2024 04:30;608
03.01.2024 04:45;628
03.01.2024 05:00;659
03.01.2024 05:15;701
03.01.2024 05:30;746
03.01.2024 05:45;804
03.01.2024 06:00;879
03.01.2024 06:15;1002
03.01.2024 06:30;1149
03.01.2024 06:45;1303
03.01.2024 07:00;1433
03.01.2024 07:15;1576
03.01.2024 07:30;1683
03.01.2024 07:45;1758
03.01.2024 08:00;1834
03.01.2024 08:15;1904
03.01.2024 08:30;1956
03.01.2024 08:45;1955
03.01.2024 09:00;1964
03.01.2024 09:15;1952
03.01.2024 09:30;1986
03.01.2024 09:45;2026
03.01.2024 10:00;2037
03.01.2024 10:15;2056
03.01.2024 10:30;2081
03.01.2024 10:45;2080
03.01.2024 11:00;2092
03.01.2024 11:15;2108
03.01.2024 11:30;2116
03.01.2024 11:45;2092
03.01.2024 12:00;2051
03.01.2024 12:15;2044
03.01.2024 12:30;2074
03.01.2024 12:45;2061
03.01.2024 13:00;2072
03.01.2024 13:15;2067
03.01.2024 13:30;2067
03.01.2024 13:45;2069
03.01.2024 14:00;2021
03.01.2024 14:15;1978
03.01.2024 14:30;1972
03.01.2024 14:45;1967
03.01.2024 15:00;1961
03.01.2024 15:15;1913
03.01.2024 15:30;1886
03.01.2024 15:45;1865
03.01.2024 16:00;1853
03.01.2024 16:15;1844
03.01.2024 16:30;1836
03.01.2024 16:45;1854
03.01.2024 17:00;1892
03.01.2024 17:15;1946
03.01.2024 17:30;1988
03.01.2024 17:45;1983
03.01.2024 18:00;2007
03.01.2024 18:15;2032
03.01.2024 18:30;2038
03.01.2024 18:45;2017
03.01.2024 19:00;2001
03.01.2024 19:15;1960
03.01.2024 19:30;1932
03.01.2024 19:45;1857
03.01.2024 20:00;1811
03.01.2024 20:15;1735
03.01.2024 20:30;1600
03.01.2024 20:45;1502
03.01.2024 21:00;1435
03.01.2024 21:15;1371
03.01.2024 21:30;1305
03.01.2024 21:45;1223
03.01.2024 22:00;1155
03.01.2024 22:15;1098
03.01.2024 22:30;1042
03.01.2024 22:45;971
03.01.2024 23:00;921
03.01.2024 23:15;871
03.01.2024 23:30;813
03.01.2024 23:45;756
04.01.2024 00:00;712
04.01.2024 00:15;713
04.01.2024 00:30;693
04.01.2024 00:45;660
04.01.2024 01:00;634
04.01.2024 01:15;611
04.01.2024 01:30;606
04.01.2024 01:45;594
04.01.2024 02:00;587
04.01.2024 02:15;578
04.01.2024 02:30;566
04.01.2024 02:45;566
04.01.2024 03:00;570
04.01.2024 03:15;569
04.01.2024 03:30;574
04.01.2024 03:45;577
04.01.2024 04:00;581
04.01.2024 04:15;590
04.01.2024 04:30;601
04.01.2024 04:45;624
04.01.2024 05:00;654
04.01.2024 05:15;699
04.01.2024 05:30;745
04.01.2024 05:45;811
04.01.2024 06:00;891
04.01.2024 06:15;1022
04.01.2024 06:30;1169
04.01.2024 06:45;1322
04.01.2024 07:00;1451
04.01.2024 07:15;1575
04.01.2024 07:30;1706
04.01.2024 07:45;1784
04.01.2024 08:00;1850
04.01.2024 08:15;1918
04.01.2024 08:30;1948
04.01.2024 08:45;1959
04.01.2024 09:00;1978
04.01.2024 09:15;1939
04.01.2024 09:30;1952
04.01.2024 09:45;2026
04.01.2024 10:00;2073
04.01.2024 10:15;2062
04.01.2024 10:30;2076
04.01.2024 10:45;2082
04.01.2024 11:00;2075
04.01.2024 11:15;2079
04.01.2024 11:30;2116
04.01.2024 11:45;2173
04.01.2024 12:00;2178
04.01.2024 12:15;2162
04.01.2024 12:30;2156
04.01.2024 12:45;2167
04.01.2024 13:00;2168
04.01.2024 13:15;2163
04.01.2024 13:30;2148
04.01.2024 13:45;2117
04.01.2024 14:00;2090
04.01.2024 14:15;2033
04.01.2024 14:30;2000
04.01.2024 14:45;1984
04.01.2024 15:00;1988
04.01.2024 15:15;1988
04.01.2024 15:30;1962
04.01.2024 15:45;1918
04.01.2024 16:00;1896
04.01.2024 16:15;1872
04.01.2024 16:30;1864
04.01.2024 16:45;1870
04.01.2024 17:00;1896
04.01.2024 17:15;1943
04.01.2024 17:30;2007
04.01.2024 17:45;2011
04.01.2024 18:00;2057
04.01.2024 18:15;2076
04.01.2024 18:30;2072
04.01.2024 18:45;2092
04.01.2024 19:00;2074
04.01.2024 19:15;2067
04.01.2024 19:30;2013
04.01.2024 19:45;1983
04.01.2024 20:00;1930
04.01.2024 20:15;1859
04.01.2024 20:30;1738
04.01.2024 20:45;1640
04.01.2024 21:00;1535
04.01.2024 21:15;1469
04.01.2024 21:30;1408
04.01.2024 21:45;1299
04.01.2024 22:00;1214
04.01.2024 22:15;1155
04.01.2024 22:30;1094
04.01.2024 22:45;1024
04.01.2024 23:00;968
04.01.2024 23:15;915
04.01.2024 23:30;855
04.01.2024 23:45;797
05.01.2024 00:00;756
05.01.2024 00:15;700
05.01.2024 00:30;665
05.01.2024 00:45;646
05.01.2024 01:00;621
05.01.2024 01:15;605
05.01.2024 01:30;581
05.01.2024 01:45;571
05.01.2024 02:00;554
05.01.2024 02:15;543
05.01.2024 02:30;536
05.01.2024 02:45;529
05.01.2024 03:00;543
05.01.2024 03:15;556
05.01.2024 03:30;561
05.01.2024 03:45;565
05.01.2024 04:00;569
05.01.2024 04:15;591
05.01.2024 04:30;618
05.01.2024 04:45;648
05.01.2024 05:00;668
05.01.2024 05:15;705
05.01.2024 05:30;749
05.01.2024 05:45;821
05.01.2024 06:00;910
05.01.2024 06:15;1025
05.01.2024 06:30;1189
05.01.2024 06:45;1312
05.01.2024 07:00;1454
05.01.2024 07:15;1601
05.01.2024 07:30;1738
05.01.2024 07:45;1828
05.01.2024 08:00;1907
05.01.2024 08:15;2001
05.01.2024 08:30;2000
05.01.2024 08:45;2013
05.01.2024 09:00;1993
05.01.2024 09:15;1983
05.01.2024 09:30;2052
05.01.2024 09:45;2099
05.01.2024 10:00;2114
05.01.2024 10:15;2104
05.01.2024 10:30;2105
05.01.2024 10:45;2146
05.01.2024 11:00;2123
05.01.2024 11:15;2066
05.01.2024 11:30;2101
05.01.2024 11:45;2098
05.01.2024 12:00;2078
05.01.2024 12:15;2054
05.01.2024 12:30;2044
05.01.2024 12:45;2023
05.01.2024 13:00;1976
05.01.2024 13:15;1965
05.01.2024 13:30;1930
05.01.2024 13:45;1944
05.01.2024 14:00;1924
05.01.2024 14:15;1883
05.01.2024 14:30;1840
05.01.2024 14:45;1819
05.01.2024 15:00;1812
05.01.2024 15:15;1758
05.01.2024 15:30;1732
05.01.2024 15:45;1723
05.01.2024 16:00;1710
05.01.2024 16:15;1717
05.01.2024 16:30;1746
05.01.2024 16:45;1776
05.01.2024 17:00;1842
05.01.2024 17:15;1946
05.01.2024 17:30;2000
05.01.2024 17:45;2032
05.01.2024 18:00;2042
05.01.2024 18:15;1980
05.01.2024 18:30;1958
05.01.2024 18:45;1918
05.01.2024 19:00;1887
05.01.2024 19:15;1828
05.01.2024 19:30;1784
05.01.2024 19:45;1716
05.01.2024 20:00;1670
05.01.2024 20:15;1619
05.01.2024 20:30;1498
05.01.2024 20:45;1408
05.01.2024 21:00;1331
05.01.2024 21:15;1265
05.01.2024 21:30;1228
05.01.2024 21:45;1170
05.01.2024 22:00;1110
05.01.2024 22:15;1078
05.01.2024 22:30;1032
05.01.2024 22:45;962
05.01.2024 23:00;920
05.01.2024 23:15;878
05.01.2024 23:30;825
05.01.2024 23:45;781
06.01.2024 00:00;750
06.01.2024 00:15;695
06.01.2024 00:30;655
06.01.2024 00:45;627
06.01.2024 01:00;606
06.01.2024 01:15;591
06.01.2024 01:30;575
06.01.2024 01:45;561
06.01.2024 02:00;551
06.01.2024 02:15;532
06.01.2024 02:30;519
06.01.2024 02:45;514
06.01.2024 03:00;510
06.01.2024 03:15;509
06.01.2024 03:30;508
06.01.2024 03:45;499
06.01.2024 04:00;501
06.01.2024 04:15;504
06.01.2024 04:30;504
06.01.2024 04:45;500
06.01.2024 05:00;503
06.01.2024 05:15;514
06.01.2024 05:30;520
06.01.2024 05:45;530
06.01.2024 06:00;544
06.01.2024 06:15;567
06.01.2024 06:30;588
06.01.2024 06:45;614
06.01.2024 07:00;638
06.01.2024 07:15;672
06.01.2024 07:30;699
06.01.2024 07:45;740
06.01.2024 08:00;789
06.01.2024 08:15;830
06.01.2024 08:30;854
06.01.2024 08:45;890
06.01.2024 09:00;938
06.01.2024 09:15;979
06.01.2024 09:30;1014
06.01.2024 09:45;1049
06.01.2024 10:00;1081
06.01.2024 10:15;1102
06.01.2024 10:30;1115
06.01.2024 10:45;1117
06.01.2024 11:00;1141
06.01.2024 11:15;1176
06.01.2024 11:30;1182
06.01.2024 11:45;1183
06.01.2024 12:00;1186
06.01.2024 12:15;1171
06.01.2024 12:30;1168
06.01.2024 12:45;1152
06.01.2024 13:00;1145
06.01.2024 13:15;1128
06.01.2024 13:30;1095
06.01.2024 13:45;1073
06.01.2024 14:00;1053
06.01.2024 14:15;1035
06.01.2024 14:30;1011
06.01.2024 14:45;1013
06.01.2024 15:00;1020
06.01.2024 15:15;1015
06.01.2024 15:30;1019
06.01.2024 15:45;1008
06.01.2024 16:00;996
06.01.2024 16:15;999
06.01.2024 16:30;985
06.01.2024 16:45;1000
06.01.2024 17:00;1037
06.01.2024 17:15;1089
06.01.2024 17:30;1161
06.01.2024 17:45;1197
06.01.2024 18:00;1230
06.01.2024 18:15;1260
06.01.2024 18:30;1271
06.01.2024 18:45;1268
06.01.2024 19:00;1261
06.01.2024 19:15;1234
06.01.2024 19:30;1200
06.01.2024 19:45;1172
06.01.2024 20:00;1139
06.01.2024 20:15;1094
06.01.2024 20:30;1012
06.01.2024 20:45;953
06.01.2024 21:00;918
06.01.2024 21:15;885
06.01.2024 21:30;848
06.01.2024 21:45;811
06.01.2024 22:00;783
06.01.2024 22:15;781
06.01.2024 22:30;757
06.01.2024 22:45;726
06.01.2024 23:00;703
06.01.2024 23:15;673
06.01.2024 23:30;641
06.01.2024 23:45;632
07.01.2024 00:00;608
07.01.2024 00:15;576
07.01.2024 00:30;550
07.01.2024 00:45;525
07.01.2024 01:00;494
07.01.2024 01:15;481
07.01.2024 01:30;462
07.01.2024 01:45;444
07.01.2024 02:00;434
07.01.2024 02:15;426
07.01.2024 02:30;422
07.01.2024 02:45;415
07.01.2024 03:00;409
07.01.2024 03:15;407
07.01.2024 03:30;402
07.01.2024 03:45;397
07.01.2024 04:00;395
07.01.2024 04:15;405
07.01.2024 04:30;415
07.01.2024 04:45;413
07.01.2024 05:00;418
07.01.2024 05:15;420
07.01.2024 05:30;423
07.01.2024 05:45;425
07.01.2024 06:00;431
07.01.2024 06:15;438
07.01.2024 06:30;443
07.01.2024 06:45;449
07.01.2024 07:00;457
07.01.2024 07:15;475
07.01.2024 07:30;491
07.01.2024 07:45;509
07.01.2024 08:00;537
07.01.2024 08:15;561
07.01.2024 08:30;577
07.01.2024 08:45;602
07.01.2024 09:00;639
07.01.2024 09:15;670
07.01.2024 09:30;709
07.01.2024 09:45;747
07.01.2024 10:00;774
07.01.2024 10:15;804
07.01.2024 10:30;843
07.01.2024 10:45;875
07.01.2024 11:00;893
07.01.2024 11:15;916
07.01.2024 11:30;945
07.01.2024 11:45;964
07.01.2024 12:00;985
07.01.2024 12:15;1001
07.01.2024 12:30;1010
07.01.2024 12:45;1010
07.01.2024 13:00;998
07.01.2024 13:15;946
07.01.2024 13:30;933
07.01.2024 13:45;916
07.01.2024 14:00;902
07.01.2024 14:15;882
07.01.2024 14:30;874
07.01.2024 14:45;873
07.01.2024 15:00;873
07.01.2024 15:15;876
07.01.2024 15:30;871
07.01.2024 15:45;869
07.01.2024 16:00;885
07.01.2024 16:15;892
07.01.2024 16:30;920
07.01.2024 16:45;960
07.01.2024 17:00;1008
07.01.2024 17:15;1066
07.01.2024 17:30;1131
07.01.2024 17:45;1192
07.01.2024 18:00;1237
07.01.2024 18:15;1251
07.01.2024 18:30;1245
07.01.2024 18:45;1237
07.01.2024 19:00;1224
07.01.2024 19:15;1212
07.01.2024 19:30;1179
07.01.2024 19:45;1148
07.01.2024 20:00;1119
07.01.2024 20:15;1094
07.01.2024 20:30;1046
07.01.2024 20:45;980
07.01.2024 21:00;939
07.01.2024 21:15;905
07.01.2024 21:30;887
07.01.2024 21:45;849
07.01.2024 22:00;832
07.01.2024 22:15;828
07.01.2024 22:30;806
07.01.2024 22:45;769
07.01.2024 23:00;745
07.01.2024 23:15;721
07.01.2024 23:30;678
07.01.2024 23:45;646
08.01.2024 00:00;613
08.01.2024 00:15;585
08.01.2024 00:30;561
08.01.2024 00:45;538
08.01.2024 01:00;521
08.01.2024 01:15;513
08.01.2024 01:30;504
08.01.2024 01:45;498
08.01.2024 02:00;490
08.01.2024 02:15;490
08.01.2024 02:30;479
08.01.2024 02:45;476
08.01.2024 03:00;477
08.01.2024 03:15;481
08.01.2024 03:30;488
08.01.2024 03:45;488
08.01.2024 04:00;493
08.01.2024 04:15;504
08.01.2024 04:30;527
08.01.2024 04:45;555
08.01.2024 05:00;578
08.01.2024 05:15;627
08.01.2024 05:30;675
08.01.2024 05:45;741
08.01.2024 06:00;826
08.01.2024 06:15;960
08.01.2024 06:30;1143
08.01.2024 06:45;1276
08.01.2024 07:00;1433
08.01.2024 07:15;1567
08.01.2024 07:30;1687
08.01.2024 07:45;1799
08.01.2024 08:00;1898
08.01.2024 08:15;1973
08.01.2024 08:30;2025
08.01.2024 08:45;2062
08.01.2024 09:00;2061
08.01.2024 09:15;2053
08.01.2024 09:30;2095
08.01.2024 09:45;2133
08.01.2024 10:00;2148
08.01.2024 10:15;2170
08.01.2024 10:30;2168
08.01.2024 10:45;2151
08.01.2024 11:00;2121
08.01.2024 11:15;2112
08.01.2024 11:30;2143
08.01.2024 11:45;2137
08.01.2024 12:00;2138
08.01.2024 12:15;2120
08.01.2024 12:30;2161
08.01.2024 12:45;2187
08.01.2024 13:00;2176
08.01.2024 13:15;2193
08.01.2024 13:30;2234
08.01.2024 13:45;2234
08.01.2024 14:00;2163
08.01.2024 14:15;2126
08.01.2024 14:30;2139
08.01.2024 14:45;2137
08.01.2024 15:00;2112
08.01.2024 15:15;2083
08.01.2024 15:30;2030
08.01.2024 15:45;1994
08.01.2024 16:00;2003
08.01.2024 16:15;1981
08.01.2024 16:30;1935
08.01.2024 16:45;1911
08.01.2024 17:00;1987
08.01.2024 17:15;2071
08.01.2024 17:30;2151
08.01.2024 17:45;2178
08.01.2024 18:00;2193
08.01.2024 18:15;2218
08.01.2024 18:30;2213
08.01.2024 18:45;2183
08.01.2024 19:00;2185
08.01.2024 19:15;2173
08.01.2024 19:30;2130
08.01.2024 19:45;2062
08.01.2024 20:00;2009
08.01.2024 20:15;1942
08.01.2024 20:30;1798
08.01.2024 20:45;1677
08.01.2024 21:00;1612
08.01.2024 21:15;1550
08.01.2024 21:30;1478
08.01.2024 21:45;1374
08.01.2024 22:00;1281
08.01.2024 22:15;1208
08.01.2024 22:30;1135
08.01.2024 22:45;1042
08.01.2024 23:00;972
08.01.2024 23:15;913
08.01.2024 23:30;854
08.01.2024 23:45;806
09.01.2024 00:00;767
09.01.2024 00:15;733
09.01.2024 00:30;706
09.01.2024 00:45;667
09.01.2024 01:00;638
09.01.2024 01:15;620
09.01.2024 01:30;603
09.01.2024 01:45;597
09.01.2024 02:00;588
09.01.2024 02:15;574
09.01.2024 02:30;561
09.01.2024 02:45;565
09.01.2024 03:00;565
09.01.2024 03:15;564
09.01.2024 03:30;562
09.01.2024 03:45;566
09.01.2024 04:00;566
09.01.2024 04:15;577
09.01.2024 04:30;592
09.01.2024 04:45;621
09.01.2024 05:00;644
09.01.2024 05:15;694
09.01.2024 05:30;752
09.01.2024 05:45;811
09.01.2024 06:00;894
09.01.2024 06:15;1021
09.01.2024 06:30;1195
09.01.2024 06:45;1332
09.01.2024 07:00;1472
09.01.2024 07:15;1608
09.01.2024 07:30;1732
09.01.2024 07:45;1810
09.01.2024 08:00;1903
09.01.2024 08:15;1982
09.01.2024 08:30;2018
09.01.2024 08:45;2041
09.01.2024 09:00;2059
09.01.2024 09:15;2038
09.01.2024 09:30;2053
09.01.2024 09:45;2108
09.01.2024 10:00;2114
09.01.2024 10:15;2132
09.01.2024 10:30;2153
09.01.2024 10:45;2167
09.01.2024 11:00;2162
09.01.2024 11:15;2169
09.01.2024 11:30;2186
09.01.2024 11:45;2173
09.01.2024 12:00;2141
09.01.2024 12:15;2156
09.01.2024 12:30;2178
09.01.2024 12:45;2186
09.01.2024 13:00;2179
09.01.2024 13:15;2155
09.01.2024 13:30;2156
09.01.2024 13:45;2121
09.01.2024 14:00;2067
09.01.2024 14:15;2032
09.01.2024 14:30;2039
09.01.2024 14:45;2012
09.01.2024 15:00;1994
09.01.2024 15:15;1968
09.01.2024 15:30;1922
09.01.2024 15:45;1898
09.01.2024 16:00;1876
09.01.2024 16:15;1843
09.01.2024 16:30;1818
09.01.2024 16:45;1821
09.01.2024 17:00;1901
09.01.2024 17:15;2005
09.01.2024 17:30;2110
09.01.2024 17:45;2151
09.01.2024 18:00;2179
09.01.2024 18:15;2203
09.01.2024 18:30;2209
09.01.2024 18:45;2173
09.01.2024 19:00;2135
09.01.2024 19:15;2123
09.01.2024 19:30;2060
09.01.2024 19:45;2016
09.01.2024 20:00;1967
09.01.2024 20:15;1897
09.01.2024 20:30;1742
09.01.2024 20:45;1641
09.01.2024 21:00;1591
09.01.2024 21:15;1517
09.01.2024 21:30;1421
09.01.2024 21:45;1331
09.01.2024 22:00;1219
09.01.2024 22:15;1161
09.01.2024 22:30;1087
09.01.2024 22:45;1009
09.01.2024 23:00;950
09.01.2024 23:15;884
09.01.2024 23:30;817
09.01.2024 23:45;764
10.01.2024 00:00;723
10.01.2024 00:15;691
10.01.2024 00:30;651
10.01.2024 00:45;632
10.01.2024 01:00;606
10.01.2024 01:15;587
10.01.2024 01:30;568
10.01.2024 01:45;555
10.01.2024 02:00;548
10.01.2024 02:15;534
10.01.2024 02:30;528
10.01.2024 02:45;527
10.01.2024 03:00;531
10.01.2024 03:15;543
10.01.2024 03:30;549
10.01.2024 03:45;554
10.01.2024 04:00;560
10.01.2024 04:15;566
10.01.2024 04:30;573
10.01.2024 04:45;591
10.01.2024 05:00;624
10.01.2024 05:15;663
10.01.2024 05:30;707
10.01.2024 05:45;771
10.01.2024 06:00;857
10.01.2024 06:15;980
10.01.2024 06:30;1148
10.01.2024 06:45;1307
10.01.2024 07:00;1454
10.01.2024 07:15;1599
10.01.2024 07:30;1720
10.01.2024 07:45;1798
10.01.2024 08:00;1884
10.01.2024 08:15;1962
10.01.2024 08:30;2015
10.01.2024 08:45;2008
10.01.2024 09:00;2025
10.01.2024 09:15;1987
10.01.2024 09:30;2010
10.01.2024 09:45;2059
10.01.2024 10:00;2074
10.01.2024 10:15;2106
10.01.2024 10:30;2128
10.01.2024 10:45;2136
10.01.2024 11:00;2145
10.01.2024 11:15;2154
10.01.2024 11:30;2156
10.01.2024 11:45;2132
10.01.2024 12:00;2096
10.01.2024 12:15;2094
10.01.2024 12:30;2126
10.01.2024 12:45;2111
10.01.2024 13:00;2121
10.01.2024 13:15;2131
10.01.2024 13:30;2104
10.01.2024 13:45;2113
10.01.2024 14:00;2092
10.01.2024 14:15;2046
10.01.2024 14:30;2059
10.01.2024 14:45;2067
10.01.2024 15:00;2065
10.01.2024 15:15;2025
10.01.2024 15:30;1999
10.01.2024 15:45;1978
10.01.2024 16:00;1975
10.01.2024 16:15;1951
10.01.2024 16:30;1946
10.01.2024 16:45;1959
10.01.2024 17:00;1998
10.01.2024 17:15;2046
10.01.2024 17:30;2124
10.01.2024 17:45;2146
10.01.2024 18:00;2167
10.01.2024 18:15;2179
10.01.2024 18:30;2175
10.01.2024 18:45;2132
10.01.2024 19:00;2120
10.01.2024 19:15;2095
10.01.2024 19:30;2054
10.01.2024 19:45;1987
10.01.2024 20:00;1945
10.01.2024 20:15;1882
10.01.2024 20:30;1729
10.01.2024 20:45;1613
10.01.2024 21:00;1542
10.01.2024 21:15;1477
10.01.2024 21:30;1400
10.01.2024 21:45;1306
10.01.2024 22:00;1220
10.01.2024 22:15;1148
10.01.2024 22:30;1077
10.01.2024 22:45;1001
10.01.2024 23:00;943
10.01.2024 23:15;884
10.01.2024 23:30;822
10.01.2024 23:45;759
11.01.2024 00:00;712
11.01.2024 00:15;677
11.01.2024 00:30;648
11.01.2024 00:45;616
11.01.2024 01:00;586
11.01.2024 01:15;567
11.01.2024 01:30;560
11.01.2024 01:45;551
11.01.2024 02:00;542
11.01.2024 02:15;534
11.01.2024 02:30;522
11.01.2024 02:45;519
11.01.2024 03:00;527
11.01.2024 03:15;527
11.01.2024 03:30;531
11.01.2024 03:45;533
11.01.2024 04:00;538
11.01.2024 04:15;543
11.01.2024 04:30;559
11.01.2024 04:45;589
11.01.2024 05:00;619
11.01.2024 05:15;667
11.01.2024 05:30;714
11.01.2024 05:45;782
11.01.2024 06:00;865
11.01.2024 06:15;984
11.01.2024 06:30;1153
11.01.2024 06:45;1314
11.01.2024 07:00;1454
11.01.2024 07:15;1582
11.01.2024 07:30;1734
11.01.2024 07:45;1812
11.01.2024 08:00;1901
11.01.2024 08:15;1975
11.01.2024 08:30;1994
11.01.2024 08:45;1974
11.01.2024 09:00;1991
11.01.2024 09:15;1948
11.01.2024 09:30;1969
11.01.2024 09:45;2037
11.01.2024 10:00;2069
11.01.2024 10:15;2080
11.01.2024 10:30;2077
11.01.2024 10:45;2074
11.01.2024 11:00;2082
11.01.2024 11:15;2092
11.01.2024 11:30;2136
11.01.2024 11:45;2172
11.01.2024 12:00;2151
11.01.2024 12:15;2143
11.01.2024 12:30;2160
11.01.2024 12:45;2183
11.01.2024 13:00;2181
11.01.2024 13:15;2188
11.01.2024 13:30;2174
11.01.2024 13:45;2162
11.01.2024 14:00;2145
11.01.2024 14:15;2075
11.01.2024 14:30;2041
11.01.2024 14:45;2040
11.01.2024 15:00;2071
11.01.2024 15:15;2085
11.01.2024 15:30;2070
11.01.2024 15:45;2020
11.01.2024 16:00;1976
11.01.2024 16:15;1954
11.01.2024 16:30;1940
11.01.2024 16:45;1935
11.01.2024 17:00;1977
11.01.2024 17:15;2068
11.01.2024 17:30;2146
11.01.2024 17:45;2172
11.01.2024 18:00;2229
11.01.2024 18:15;2231
11.01.2024 18:30;2186
11.01.2024 18:45;2170
11.01.2024 19:00;2148
11.01.2024 19:15;2141
11.01.2024 19:30;2094
11.01.2024 19:45;2056
11.01.2024 20:00;2001
11.01.2024 20:15;1922
11.01.2024 20:30;1777
11.01.2024 20:45;1664
11.01.2024 21:00;1554
11.01.2024 21:15;1487
11.01.2024 21:30;1415
11.01.2024 21:45;1292
11.01.2024 22:00;1212
11.01.2024 22:15;1154
11.01.2024 22:30;1081
11.01.2024 22:45;998
11.01.2024 23:00;942
11.01.2024 23:15;883
11.01.2024 23:30;819
11.01.2024 23:45;762
12.01.2024 00:00;715
12.01.2024 00:15;680
12.01.2024 00:30;645
12.01.2024 00:45;625
12.01.2024 01:00;603
12.01.2024 01:15;584
12.01.2024 01:30;561